Theta_e
344 346 343 344 343 344 344 344 344 344 344 344 344 345 346 344 336 338 342 339 338 342 342 340 342 344 344 346 345 343 344 344 344
346 347 347 344 344 345 345 345 345 345 345 346 348 349 346 337 339 344 345 338 336 338 339 345 345 345 345 346 346 345 344 345 344
347 348 346 345 345 343 341 341 343 343 345 347 352 351 348 346 344 347 345 346 343 344 346 346 346 344 344 345 345 345 345 344 344
345 348 346 344 343 343 342 341 342 346 352 352 350 348 349 348 348 347 347 347 347 346 343 339 336 336 335 336 337 338 339 340 340
346 346 344 345 341 341 342 349 353 352 351 349 348 344 341 338 337 338 338 337 335 335 334 332 331 331 331 332 332 334 336 337 338
345 346 346 347 348 344 347 354 352 351 349 343 336 332 333 335 335 334 334 333 333 333 333 332 331 330 330 331 331 332 333 335 336
348 346 350 351 350 347 355 353 350 347 341 336 334 334 335 335 336 336 334 334 334 334 333 331 330 331 331 332 333 334 334 334 333
348 351 351 351 346 354 354 352 347 342 337 334 333 335 335 334 334 335 333 333 333 333 332 332 332 332 332 333 332 331 331 330 329
349 351 351 354 353 352 353 350 346 339 337 338 337 337 336 336 336 337 337 336 335 334 333 332 332 332 330 328 325 320 315 313 311
349 351 352 355 355 354 353 351 345 339 339 339 339 338 338 339 338 335 334 334 334 332 331 330 327 324 321 316 312 309 310 312 312
346 351 352 354 355 354 353 349 343 340 339 341 341 340 339 337 336 336 334 334 332 331 327 322 317 313 310 310 311 312 313 312 312
343 346 348 353 353 353 350 343 339 339 341 342 341 340 338 337 336 335 334 332 329 324 315 310 308 310 312 313 313 312 312 311 310
346 348 352 353 352 351 347 341 339 341 341 343 343 341 340 338 335 334 331 325 316 310 310 311 313 313 313 314 313 311 311 311 311
349 348 350 353 351 350 349 345 341 343 343 344 344 342 340 337 335 329 320 313 311 312 313 314 313 313 312 312 312 312 312 312 312
347 350 352 353 351 351 351 344 341 343 346 346 343 341 338 336 327 318 312 312 313 314 314 314 314 314 314 314 314 313 312 312 311
347 350 352 352 352 351 350 344 344 347 346 345 342 339 337 330 319 312 312 314 314 314 314 314 314 314 312 312 312 312 311 311 310
350 348 351 352 352 352 349 346 348 349 346 342 340 337 333 321 312 314 315 314 314 313 312 311 311 311 311 311 311 310 309 307 307
344 346 351 352 352 351 348 345 347 346 342 340 337 333 319 313 314 314 314 313 312 311 311 311 310 310 310 310 309 307 305 305 307
349 350 351 352 351 348 344 341 344 341 339 336 329 315 312 314 314 313 313 311 311 311 310 309 309 309 307 305 307 307 307 307 307
347 349 348 348 348 344 341 341 341 338 335 321 312 310 311 311 313 313 312 311 312 311 309 309 310 307 307 308 309 308 308 308 307
Wind_Speed
2 1 5 10 12 10 11 12 13 12 9 7 12 14 10 9 14 10 13 21 11 18 15 21 19 16 13 14 14 12 10 12 11
1 4 6 6 4 3 5 5 3 4 8 12 13 9 7 2 5 4 3 3 2 5 6 10 12 8 8 9 9 9 9 9 10
6 8 8 8 9 7 8 9 10 12 13 13 11 9 8 5 5 9 9 6 5 7 8 5 5 4 4 4 4 6 7 8 9
8 9 9 11 16 16 13 11 12 14 17 17 16 14 11 9 10 11 9 5 3 3 2 2 4 4 4 4 4 4 4 5 6
7 8 9 13 16 10 12 14 16 20 23 21 18 16 15 15 14 12 11 9 7 6 7 6 6 5 5 4 5 5 5 5 5
10 9 11 13 15 15 17 22 25 23 21 20 21 18 16 16 15 13 12 11 9 8 6 5 4 3 2 2 2 3 4 5 5
11 13 12 15 18 22 24 24 25 23 21 20 20 20 19 18 15 13 11 9 7 5 2 1 1 2 3 4 4 4 3 4 6
14 15 16 17 23 28 26 25 23 22 22 21 20 20 19 17 14 12 10 8 5 4 4 4 5 5 6 7 7 7 8 8 8
21 19 19 19 24 25 25 24 23 23 22 21 19 18 16 14 14 12 9 6 3 3 4 5 6 7 8 8 8 8 7 7 5
21 23 23 23 24 25 24 22 21 21 20 18 16 13 12 11 10 6 5 3 1 1 4 5 6 7 7 7 6 6 5 5 6
24 24 25 26 25 24 22 20 21 20 18 16 14 12 10 8 5 3 4 2 1 3 5 6 7 6 4 2 3 3 4 5 7
27 29 26 26 25 24 21 21 20 19 18 16 13 10 9 5 1 3 3 3 5 6 5 3 1 0 1 2 3 3 5 7 7
20 21 23 26 25 22 20 20 18 18 17 15 12 10 6 3 1 3 2 4 6 4 3 2 1 1 1 2 3 4 6 7 9
20 24 26 25 23 20 19 19 18 17 14 13 12 9 6 2 2 3 3 4 3 3 2 1 1 2 3 3 5 7 9 11 12
26 26 25 23 24 21 17 17 18 17 16 14 12 10 5 3 2 2 3 2 3 3 2 3 4 6 8 10 11 12 12 13 14
26 27 26 26 26 22 19 19 18 18 17 17 13 10 6 3 3 1 1 2 3 4 6 7 7 8 9 12 13 13 13 15 17
18 23 26 26 26 25 24 23 21 17 16 14 13 10 7 4 3 3 3 2 4 4 5 6 8 8 9 10 12 15 16 15 13
20 23 27 27 27 26 22 15 18 18 15 14 12 8 4 4 5 6 4 5 5 4 5 6 7 9 13 13 9 11 13 11 9
20 23 26 28 27 22 18 11 18 17 15 11 8 6 5 7 6 6 5 5 4 5 6 9 11 14 12 10 13 14 12 13 15
18 22 22 23 17 20 18 21 20 17 12 9 8 7 8 8 7 4 4 2 2 4 7 12 13 12 10 13 16 14 13 16 19
Wind_Direction
316 234 207 207 232 243 245 244 245 255 244 217 225 235 241 212 312 269 305 314 266 214 230 279 284 301 286 288 281 284 274 269 276
352 100 128 159 146 151 194 195 162 125 168 192 206 210 146 65 156 252 253 276 126 196 233 302 292 303 290 282 275 276 271 271 278
139 112 119 124 128 139 146 133 140 153 168 171 150 136 156 143 173 181 171 169 206 245 256 270 301 319 321 305 297 283 286 288 289
151 145 139 138 134 131 135 139 151 160 147 139 138 138 136 145 166 169 169 195 170 154 160 147 110 90 66 42 26 1 340 320 327
159 160 177 164 158 153 153 148 142 138 132 127 123 123 126 127 132 134 133 131 131 133 129 122 113 97 81 57 39 23 15 13 5
173 167 164 166 169 171 158 140 137 136 132 130 127 127 128 128 128 130 131 135 136 136 139 140 124 94 67 43 22 10 4 3 3
173 164 159 152 151 152 151 144 142 139 136 131 128 134 139 140 142 142 140 141 142 144 155 231 304 312 310 318 326 338 344 346 345
177 167 163 165 161 157 154 149 146 144 140 138 142 148 151 152 154 158 162 163 175 207 235 260 282 292 298 303 313 316 318 319 310
181 175 170 169 163 158 158 157 153 148 146 147 149 150 149 150 157 155 157 169 199 237 261 282 287 291 299 308 313 322 332 341 350
180 180 174 170 167 165 165 163 159 154 148 144 145 148 152 152 152 149 135 140 151 288 298 297 295 297 305 313 326 339 354 10 13
192 183 176 174 171 170 168 164 155 156 150 149 149 143 143 152 159 119 79 38 3 321 306 304 301 302 305 341 13 23 28 12 355
195 190 183 178 175 172 168 164 164 161 154 153 150 146 150 147 121 13 1 339 331 319 309 308 293 94 66 50 31 11 353 341 340
187 186 178 175 172 170 169 169 168 165 161 161 162 166 176 179 353 328 326 329 330 351 40 96 91 25 19 2 350 341 342 336 325
177 181 182 178 174 176 177 171 170 171 169 174 181 183 193 194 274 274 321 344 28 65 81 105 41 28 5 336 320 310 312 311 310
176 183 184 181 180 183 181 179 177 180 182 189 186 190 199 226 227 294 325 38 63 57 31 1 334 318 306 304 309 310 310 308 306
182 185 186 187 189 188 185 185 187 189 186 189 191 190 197 214 256 252 140 125 63 40 351 335 328 317 312 312 310 310 311 310 309
181 182 188 190 189 191 186 188 185 195 191 183 184 190 204 228 224 161 149 114 68 27 358 333 324 321 321 320 316 314 313 312 312
194 191 195 192 191 192 183 192 188 180 181 181 186 197 203 202 168 126 109 74 30 32 8 350 341 327 324 323 324 325 322 326 330
198 196 197 192 187 180 150 145 196 179 176 181 193 189 182 164 139 120 88 63 66 11 9 344 331 328 330 339 341 339 338 337 330
203 197 194 189 181 149 166 170 178 172 178 187 181 161 164 148 126 90 67 86 352 348 341 339 331 331 337 339 343 331 327 324 308